Starlink 33832

operational
NORAD ID: 63637 Int'l Des: 2025-083 Owner: SPXS Country: US Constellation: starlink
LEOCIRCULAR

关于 Starlink 33832

正在加载描述...

实时位置

正在加载3D地球...

即将过境

高度历史

Altitude vs Time

uPlot chart will show altitude changes over time

两行轨道根数

1 63637U 25083D 26033.92456853 .00025717 00000-0 93995-3 0 9999
2 63637 43.0023 201.2386 0002880 293.7338 66.3212 15.27607837 44750
Epoch: Feb 2, 2026 • Age: 25 hours

当前状态

高度 481.4 km
速度 7.63 km/s
星下点 2.02°N, 73.69°E
发射日期 Apr 25, 2025
运行时间 0.7 years
类型 internet

技术详情

分类 Payload
质量 575.00 kg
干质量 530.00 kg
总质量 575.00 kg
长度 0.30 m
直径 4.10 m
跨度 29.00 m
形状 Box + pan
制造商 SPXS
平台类型 Starlink V2MO
阶段状态 In Orbit
所有者/国家 SPXS/US

大型星座

Loading constellations...